Time,TemperatureF,DewpointF,PressureIn,WindDirection,WindDirectionDegrees,WindSpeedMPH,WindSpeedGustMPH,Humidity,HourlyPrecipIn,Conditions,Clouds,dailyrainin,SolarRadiationWatts/m^2,SoftwareType,DateUTC
2013-01-09 00:03:00,30.0,16.0,-100.00,SSW,200,6.0,9.0,56,0.00,,,0.00,0.000000,,2013-01-09 05:03:00,
2013-01-09 00:12:00,30.0,16.0,-100.00,SSW,200,6.0,9.0,56,0.00,,,0.00,0.000000,,2013-01-09 05:12:00,
2013-01-09 00:33:00,29.0,16.0,-100.00,SSW,209,2.0,11.0,59,0.00,,,0.00,0.000000,,2013-01-09 05:33:00,
2013-01-09 00:43:00,29.0,16.0,-100.00,SSW,209,2.0,11.0,59,0.00,,,0.00,0.000000,,2013-01-09 05:43:00,
2013-01-09 00:53:00,29.0,16.0,-100.00,SSW,209,2.0,11.0,59,0.00,,,0.00,0.000000,,2013-01-09 05:53:00,
2013-01-09 01:02:00,29.0,16.0,-100.00,SSW,209,2.0,11.0,59,0.00,,,0.00,0.000000,,2013-01-09 06:02:00,
2013-01-09 01:12:00,29.0,16.0,-100.00,SSW,209,2.0,11.0,59,0.00,,,0.00,0.000000,,2013-01-09 06:12:00,
2013-01-09 01:32:00,32.0,18.0,-100.00,South,183,2.0,10.0,56,0.00,,,0.00,0.000000,,2013-01-09 06:32:00,
2013-01-09 01:42:00,32.0,18.0,-100.00,South,183,2.0,10.0,56,0.00,,,0.00,0.000000,,2013-01-09 06:42:00,
2013-01-09 01:52:00,32.0,18.0,-100.00,South,183,2.0,10.0,56,0.00,,,0.00,0.000000,,2013-01-09 06:52:00,
2013-01-09 02:02:00,32.0,18.0,-100.00,South,183,2.0,10.0,56,0.00,,,0.00,0.000000,,2013-01-09 07:02:00,
2013-01-09 02:12:00,32.0,18.0,-100.00,South,183,2.0,10.0,56,0.00,,,0.00,0.000000,,2013-01-09 07:12:00,
2013-01-09 02:32:00,30.0,18.0,-100.00,WNW,282,2.0,8.0,60,0.00,,,0.00,0.000000,,2013-01-09 07:32:00,
2013-01-09 02:42:00,30.0,18.0,-100.00,WNW,282,2.0,8.0,60,0.00,,,0.00,0.000000,,2013-01-09 07:42:00,
2013-01-09 02:52:00,30.0,18.0,-100.00,WNW,282,2.0,8.0,60,0.00,,,0.00,0.000000,,2013-01-09 07:52:00,
2013-01-09 03:02:00,30.0,18.0,-100.00,WNW,282,2.0,8.0,60,0.00,,,0.00,0.000000,,2013-01-09 08:02:00,
2013-01-09 03:12:00,30.0,18.0,-100.00,WNW,282,2.0,8.0,60,0.00,,,0.00,0.000000,,2013-01-09 08:12:00,
2013-01-09 03:32:00,29.0,18.0,-100.00,SSE,158,2.0,6.0,62,0.00,,,0.00,0.000000,,2013-01-09 08:32:00,
2013-01-09 03:43:00,29.0,18.0,-100.00,SSE,158,2.0,6.0,62,0.00,,,0.00,0.000000,,2013-01-09 08:43:00,
2013-01-09 03:53:00,29.0,18.0,-100.00,SSE,158,2.0,6.0,62,0.00,,,0.00,0.000000,,2013-01-09 08:53:00,
2013-01-09 04:02:00,29.0,18.0,-100.00,SSE,158,2.0,6.0,62,0.00,,,0.00,0.000000,,2013-01-09 09:02:00,
2013-01-09 04:12:00,29.0,18.0,-100.00,SSE,158,2.0,6.0,62,0.00,,,0.00,0.000000,,2013-01-09 09:12:00,
2013-01-09 04:32:00,32.0,18.0,-100.00,WSW,257,5.0,11.0,56,0.00,,,0.00,0.000000,,2013-01-09 09:32:00,
2013-01-09 04:42:00,32.0,18.0,-100.00,WSW,257,5.0,11.0,56,0.00,,,0.00,0.000000,,2013-01-09 09:42:00,
2013-01-09 04:53:00,32.0,18.0,-100.00,WSW,257,5.0,11.0,56,0.00,,,0.00,0.000000,,2013-01-09 09:53:00,
2013-01-09 05:02:00,32.0,18.0,-100.00,WSW,257,5.0,11.0,56,0.00,,,0.00,0.000000,,2013-01-09 10:02:00,
2013-01-09 05:12:00,32.0,18.0,-100.00,WSW,257,5.0,11.0,56,0.00,,,0.00,0.000000,,2013-01-09 10:12:00,
2013-01-09 05:32:00,33.0,19.0,-100.00,WSW,257,7.0,19.0,55,-99.99,,,-99.99,0.000000,,2013-01-09 10:32:00,
2013-01-09 05:42:00,33.0,19.0,-100.00,WSW,257,7.0,19.0,55,-99.99,,,-99.99,0.000000,,2013-01-09 10:42:00,
2013-01-09 05:52:00,33.0,19.0,-100.00,WSW,257,7.0,19.0,55,-99.99,,,-99.99,0.000000,,2013-01-09 10:52:00,
2013-01-09 06:02:00,33.0,19.0,-100.00,WSW,257,7.0,19.0,55,-99.99,,,-99.99,0.000000,,2013-01-09 11:02:00,
2013-01-09 06:12:00,33.0,19.0,-100.00,WSW,257,7.0,19.0,55,-99.99,,,-99.99,0.000000,,2013-01-09 11:12:00,
2013-01-09 06:33:00,34.0,19.0,-100.00,West,270,8.0,23.0,54,0.00,,,-99.99,0.000000,,2013-01-09 11:33:00,
2013-01-09 06:43:00,34.0,19.0,-100.00,West,270,8.0,23.0,54,0.00,,,-99.99,0.000000,,2013-01-09 11:43:00,
2013-01-09 06:53:00,34.0,19.0,-100.00,West,270,8.0,23.0,54,0.00,,,-99.99,0.000000,,2013-01-09 11:53:00,
2013-01-09 07:03:00,34.0,19.0,-100.00,West,270,8.0,23.0,54,0.00,,,-99.99,0.000000,,2013-01-09 12:03:00,
2013-01-09 07:12:00,34.0,19.0,-100.00,West,270,8.0,23.0,54,0.00,,,-99.99,0.000000,,2013-01-09 12:12:00,
2013-01-09 07:33:00,36.0,19.0,-100.00,WNW,284,12.0,27.0,50,0.00,,,-99.99,0.000000,,2013-01-09 12:33:00,
2013-01-09 07:43:00,36.0,19.0,-100.00,WNW,284,12.0,27.0,50,0.00,,,-99.99,0.000000,,2013-01-09 12:43:00,
2013-01-09 07:53:00,36.0,19.0,-100.00,WNW,284,12.0,27.0,50,0.00,,,-99.99,0.000000,,2013-01-09 12:53:00,
2013-01-09 08:03:00,36.0,19.0,-100.00,WNW,284,12.0,27.0,50,0.00,,,-99.99,0.000000,,2013-01-09 13:03:00,
2013-01-09 08:12:00,36.0,19.0,-100.00,WNW,284,12.0,27.0,50,0.00,,,-99.99,0.000000,,2013-01-09 13:12:00,
2013-01-09 08:33:00,36.0,19.0,-100.00,West,271,12.0,25.0,49,0.00,,,-99.99,0.000000,,2013-01-09 13:33:00,
2013-01-09 08:43:00,36.0,19.0,-100.00,West,271,12.0,25.0,49,0.00,,,-99.99,0.000000,,2013-01-09 13:43:00,
2013-01-09 08:53:00,36.0,19.0,-100.00,West,271,12.0,25.0,49,0.00,,,-99.99,0.000000,,2013-01-09 13:53:00,
2013-01-09 09:03:00,36.0,19.0,-100.00,West,271,12.0,25.0,49,0.00,,,-99.99,0.000000,,2013-01-09 14:03:00,
2013-01-09 09:12:00,36.0,19.0,-100.00,West,271,12.0,25.0,49,0.00,,,-99.99,0.000000,,2013-01-09 14:12:00,
2013-01-09 09:33:00,37.0,20.0,-100.00,West,271,12.0,26.0,49,0.00,,,-99.99,0.000000,,2013-01-09 14:33:00,
2013-01-09 09:43:00,37.0,20.0,-100.00,West,271,12.0,26.0,49,0.00,,,-99.99,0.000000,,2013-01-09 14:43:00,
2013-01-09 09:53:00,37.0,20.0,-100.00,West,271,12.0,26.0,49,0.00,,,-99.99,0.000000,,2013-01-09 14:53:00,
2013-01-09 10:03:00,37.0,20.0,-100.00,West,271,12.0,26.0,49,0.00,,,-99.99,0.000000,,2013-01-09 15:03:00,
2013-01-09 10:12:00,37.0,20.0,-100.00,West,271,12.0,26.0,49,0.00,,,-99.99,0.000000,,2013-01-09 15:12:00,
2013-01-09 10:33:00,39.0,20.0,-100.00,West,276,14.0,28.0,47,0.00,,,-99.99,18.000000,,2013-01-09 15:33:00,
2013-01-09 10:43:00,39.0,20.0,-100.00,West,276,14.0,28.0,47,0.00,,,-99.99,18.000000,,2013-01-09 15:43:00,
2013-01-09 10:53:00,39.0,20.0,-100.00,West,276,14.0,28.0,47,0.00,,,-99.99,18.000000,,2013-01-09 15:53:00,
2013-01-09 11:03:00,39.0,20.0,-100.00,West,276,14.0,28.0,47,0.00,,,-99.99,18.000000,,2013-01-09 16:03:00,
2013-01-09 11:12:00,39.0,20.0,-100.00,West,276,14.0,28.0,47,0.00,,,-99.99,18.000000,,2013-01-09 16:12:00,
2013-01-09 11:34:00,42.0,21.0,-100.00,West,275,13.0,37.0,43,0.00,,,-99.99,159.000000,,2013-01-09 16:34:00,
2013-01-09 11:43:00,42.0,21.0,-100.00,West,275,13.0,37.0,43,0.00,,,-99.99,159.000000,,2013-01-09 16:43:00,
2013-01-09 11:53:00,42.0,21.0,-100.00,West,275,13.0,37.0,43,0.00,,,-99.99,159.000000,,2013-01-09 16:53:00,
2013-01-09 12:03:00,42.0,21.0,-100.00,West,275,13.0,37.0,43,0.00,,,-99.99,159.000000,,2013-01-09 17:03:00,
2013-01-09 12:12:00,42.0,21.0,-100.00,West,275,13.0,37.0,43,0.00,,,-99.99,159.000000,,2013-01-09 17:12:00,
2013-01-09 12:43:00,45.0,22.0,-100.00,West,277,10.0,26.0,39,0.00,,,-99.99,330.000000,,2013-01-09 17:43:00,
2013-01-09 12:53:00,45.0,22.0,-100.00,West,277,10.0,26.0,39,0.00,,,-99.99,330.000000,,2013-01-09 17:53:00,
2013-01-09 13:03:00,45.0,22.0,-100.00,West,277,10.0,26.0,39,0.00,,,-99.99,330.000000,,2013-01-09 18:03:00,
2013-01-09 13:12:00,45.0,22.0,-100.00,West,277,10.0,26.0,39,0.00,,,-99.99,330.000000,,2013-01-09 18:12:00,
2013-01-09 13:33:00,47.0,21.0,-100.00,West,275,14.0,31.0,36,0.00,,,-99.99,462.000000,,2013-01-09 18:33:00,
2013-01-09 13:43:00,47.0,21.0,-100.00,West,275,14.0,31.0,36,0.00,,,-99.99,462.000000,,2013-01-09 18:43:00,
2013-01-09 13:53:00,47.0,21.0,-100.00,West,275,14.0,31.0,36,0.00,,,-99.99,462.000000,,2013-01-09 18:53:00,
2013-01-09 14:03:00,47.0,21.0,-100.00,West,275,14.0,31.0,36,0.00,,,-99.99,462.000000,,2013-01-09 19:03:00,
2013-01-09 14:12:00,47.0,21.0,-100.00,West,275,14.0,31.0,36,0.00,,,-99.99,462.000000,,2013-01-09 19:12:00,
2013-01-09 15:13:00,49.0,23.0,-100.00,South,185,10.0,20.0,36,-99.99,,,-99.99,548.000000,,2013-01-09 20:13:00,
2013-01-09 15:43:00,49.0,23.0,-100.00,South,185,10.0,20.0,36,-99.99,,,-99.99,548.000000,,2013-01-09 20:43:00,
2013-01-09 15:53:00,49.0,23.0,-100.00,South,185,10.0,20.0,36,-99.99,,,-99.99,548.000000,,2013-01-09 20:53:00,
2013-01-09 16:03:00,49.0,23.0,-100.00,South,185,10.0,20.0,36,-99.99,,,-99.99,548.000000,,2013-01-09 21:03:00,
2013-01-09 16:33:00,50.0,21.0,-100.00,SW,232,10.0,26.0,32,0.00,,,-99.99,493.000000,,2013-01-09 21:33:00,
2013-01-09 16:43:00,50.0,21.0,-100.00,SW,232,10.0,26.0,32,0.00,,,-99.99,493.000000,,2013-01-09 21:43:00,
2013-01-09 16:53:00,50.0,21.0,-100.00,SW,232,10.0,26.0,32,0.00,,,-99.99,493.000000,,2013-01-09 21:53:00,
2013-01-09 17:03:00,50.0,21.0,-100.00,SW,232,10.0,26.0,32,0.00,,,-99.99,493.000000,,2013-01-09 22:03:00,
2013-01-09 17:12:00,50.0,21.0,-100.00,SW,232,10.0,26.0,32,0.00,,,-99.99,493.000000,,2013-01-09 22:12:00,
2013-01-09 17:13:00,52.0,24.0,-100.00,South,183,8.0,15.0,33,0.00,,,-99.99,374.000000,,2013-01-09 22:13:00,
2013-01-09 17:43:00,52.0,24.0,-100.00,South,183,8.0,15.0,33,0.00,,,-99.99,374.000000,,2013-01-09 22:43:00,
2013-01-09 17:52:00,52.0,24.0,-100.00,South,183,8.0,15.0,33,0.00,,,-99.99,374.000000,,2013-01-09 22:52:00,
2013-01-09 18:02:00,52.0,24.0,-100.00,South,183,8.0,15.0,33,0.00,,,-99.99,374.000000,,2013-01-09 23:02:00,
2013-01-09 18:33:00,49.0,23.0,-100.00,SW,231,5.0,16.0,35,0.00,,,-99.99,144.000000,,2013-01-09 23:33:00,
2013-01-09 18:43:00,49.0,23.0,-100.00,SW,231,5.0,16.0,35,0.00,,,-99.99,144.000000,,2013-01-09 23:43:00,
2013-01-09 18:53:00,49.0,23.0,-100.00,SW,231,5.0,16.0,35,0.00,,,-99.99,144.000000,,2013-01-09 23:53:00,
2013-01-09 19:03:00,49.0,23.0,-100.00,SW,231,5.0,16.0,35,0.00,,,-99.99,144.000000,,2013-01-10 00:03:00,
2013-01-09 19:12:00,49.0,23.0,-100.00,SW,231,5.0,16.0,35,0.00,,,-99.99,144.000000,,2013-01-10 00:12:00,
2013-01-09 19:33:00,47.0,22.0,-100.00,West,261,4.0,11.0,37,0.00,,,-99.99,6.000000,,2013-01-10 00:33:00,
2013-01-09 19:43:00,47.0,22.0,-100.00,West,261,4.0,11.0,37,0.00,,,-99.99,6.000000,,2013-01-10 00:43:00,
2013-01-09 19:53:00,47.0,22.0,-100.00,West,261,4.0,11.0,37,0.00,,,-99.99,6.000000,,2013-01-10 00:53:00,
2013-01-09 20:02:00,47.0,22.0,-100.00,West,261,4.0,11.0,37,0.00,,,-99.99,6.000000,,2013-01-10 01:02:00,
2013-01-09 20:12:00,47.0,22.0,-100.00,West,261,4.0,11.0,37,0.00,,,-99.99,6.000000,,2013-01-10 01:12:00,
2013-01-09 20:33:00,46.0,21.0,-100.00,West,262,3.0,9.0,37,0.00,,,-99.99,0.000000,,2013-01-10 01:33:00,
2013-01-09 20:43:00,46.0,21.0,-100.00,West,262,3.0,9.0,37,0.00,,,-99.99,0.000000,,2013-01-10 01:43:00,
2013-01-09 20:53:00,46.0,21.0,-100.00,West,262,3.0,9.0,37,0.00,,,-99.99,0.000000,,2013-01-10 01:53:00,
2013-01-09 21:03:00,46.0,21.0,-100.00,West,262,3.0,9.0,37,0.00,,,-99.99,0.000000,,2013-01-10 02:03:00,
2013-01-09 21:12:00,46.0,21.0,-100.00,West,262,3.0,9.0,37,0.00,,,-99.99,0.000000,,2013-01-10 02:12:00,
2013-01-09 22:03:00,45.0,20.0,-100.00,SSW,196,4.0,7.0,37,0.00,,,-99.99,0.000000,,2013-01-10 03:03:00,
2013-01-09 22:12:00,45.0,20.0,-100.00,SSW,196,4.0,7.0,37,0.00,,,-99.99,0.000000,,2013-01-10 03:12:00,
2013-01-09 22:33:00,47.0,18.0,-100.00,West,265,6.0,15.0,31,0.00,,,-99.99,0.000000,,2013-01-10 03:33:00,
2013-01-09 22:43:00,47.0,18.0,-100.00,West,265,6.0,15.0,31,0.00,,,-99.99,0.000000,,2013-01-10 03:43:00,
2013-01-09 22:53:00,47.0,18.0,-100.00,West,265,6.0,15.0,31,0.00,,,-99.99,0.000000,,2013-01-10 03:53:00,
2013-01-09 23:02:00,47.0,18.0,-100.00,West,265,6.0,15.0,31,0.00,,,-99.99,0.000000,,2013-01-10 04:02:00,
2013-01-09 23:12:00,47.0,18.0,-100.00,West,265,6.0,15.0,31,0.00,,,-99.99,0.000000,,2013-01-10 04:12:00,
2013-01-09 23:32:00,47.0,16.0,-100.00,SW,235,6.0,14.0,29,0.00,,,-99.99,0.000000,,2013-01-10 04:32:00,
2013-01-09 23:43:00,47.0,16.0,-100.00,SW,235,6.0,14.0,29,0.00,,,-99.99,0.000000,,2013-01-10 04:43:00,
2013-01-09 23:52:00,47.0,16.0,-100.00,SW,235,6.0,14.0,29,0.00,,,-99.99,0.000000,,2013-01-10 04:52:00,